Saint Bonnet de Bellac- Haute Vienne - France
Donnes mto: samedi, 12/09/2009
Date Horaire Temp. E. Hum. E. P.atmo. Pluie Vent Direction Direction Ensoleilleme Solaire P. de rose Temp au vent Rafales
12/09/2009 00:00 16,8 C 70 % 1024,1 hPa 0,0 mm 6,5 km/h (2 Bft) N-NE 22 0 min 0 W/m 11,3 C 16,8 C 10,1 km/h (2 Bft)
12/09/2009 00:10 16,6 C 71 % 1024,1 hPa 0,0 mm 9,4 km/h (2 Bft) E-NE 67 0 min 0 W/m 11,3 C 16,6 C 14,0 km/h (3 Bft)
12/09/2009 00:20 16,5 C 72 % 1023,9 hPa 0,0 mm 3,6 km/h (1 Bft) N-NE 22 0 min 0 W/m 11,4 C 16,5 C 7,9 km/h (2 Bft)
12/09/2009 00:30 16,3 C 72 % 1024,0 hPa 0,0 mm 2,2 km/h (1 Bft) E-NE 67 0 min 0 W/m 11,2 C 16,3 C 6,1 km/h (2 Bft)
12/09/2009 00:40 16,1 C 72 % 1023,8 hPa 0,0 mm 1,1 km/h (1 Bft) E-SE 112 0 min 0 W/m 11,0 C 16,1 C 7,6 km/h (2 Bft)
12/09/2009 00:50 15,9 C 73 % 1023,7 hPa 0,0 mm 0,7 km/h (0 Bft) N-NE 22 0 min 0 W/m 11,1 C 15,9 C 0,7 km/h (0 Bft)
12/09/2009 01:00 15,7 C 73 % 1023,8 hPa 0,0 mm 1,8 km/h (1 Bft) E 90 0 min 0 W/m 10,9 C 15,7 C 4,0 km/h (1 Bft)
12/09/2009 01:10 15,4 C 74 % 1023,8 hPa 0,0 mm 0,7 km/h (0 Bft) E 90 0 min 0 W/m 10,8 C 15,4 C 2,9 km/h (1 Bft)
12/09/2009 01:20 15,3 C 75 % 1023,8 hPa 0,0 mm 0,7 km/h (0 Bft) E-NE 67 0 min 0 W/m 10,9 C 15,3 C 4,3 km/h (1 Bft)
12/09/2009 01:30 15,1 C 75 % 1023,7 hPa 0,0 mm 1,8 km/h (1 Bft) N-NE 22 0 min 0 W/m 10,7 C 15,1 C 4,0 km/h (1 Bft)
12/09/2009 01:40 14,9 C 75 % 1023,6 hPa 0,0 mm 2,5 km/h (1 Bft) NE 45 0 min 0 W/m 10,5 C 14,9 C 3,6 km/h (1 Bft)
12/09/2009 01:50 14,8 C 77 % 1023,5 hPa 0,0 mm 5,8 km/h (2 Bft) N 360 0 min 0 W/m 10,8 C 14,8 C 8,3 km/h (2 Bft)
12/09/2009 02:00 14,6 C 77 % 1023,4 hPa 0,0 mm 1,1 km/h (1 Bft) N-NE 22 0 min 0 W/m 10,6 C 14,6 C 3,6 km/h (1 Bft)
12/09/2009 02:10 14,5 C 78 % 1023,4 hPa 0,0 mm 1,1 km/h (1 Bft) E-NE 67 0 min 0 W/m 10,7 C 14,5 C 1,1 km/h (1 Bft)
12/09/2009 02:20 14,4 C 77 % 1023,4 hPa 0,0 mm 0,0 km/h (0 Bft) E-SE 112 0 min 0 W/m 10,4 C 14,4 C 0,0 km/h (0 Bft)
12/09/2009 02:30 14,2 C 78 % 1023,3 hPa 0,0 mm 0,0 km/h (0 Bft) SE 135 0 min 0 W/m 10,4 C 14,2 C 0,0 km/h (0 Bft)
12/09/2009 02:40 14,0 C 78 % 1023,2 hPa 0,0 mm 2,2 km/h (1 Bft) E-SE 112 0 min 0 W/m 10,2 C 14,0 C 4,0 km/h (1 Bft)
12/09/2009 02:50 13,8 C 79 % 1023,1 hPa 0,0 mm 0,4 km/h (0 Bft) N-NE 22 0 min 0 W/m 10,2 C 13,8 C 0,4 km/h (0 Bft)
12/09/2009 03:02 13,8 C 80 % 1023,0 hPa 0,0 mm 3,6 km/h (1 Bft) N-NE 22 0 min 0 W/m 10,4 C 13,8 C 7,2 km/h (2 Bft)
12/09/2009 03:10 13,7 C 80 % 1022,9 hPa 0,0 mm 1,8 km/h (1 Bft) N-NE 22 0 min 0 W/m 10,3 C 13,7 C 1,8 km/h (1 Bft)
12/09/2009 03:20 13,5 C 80 % 1022,8 hPa 0,0 mm 2,9 km/h (1 Bft) N 360 0 min 0 W/m 10,1 C 13,5 C 6,1 km/h (2 Bft)
12/09/2009 03:30 13,4 C 81 % 1022,7 hPa 0,0 mm 1,1 km/h (1 Bft) NE 45 0 min 0 W/m 10,2 C 13,4 C 4,0 km/h (1 Bft)
12/09/2009 03:40 13,3 C 81 % 1022,7 hPa 0,0 mm 2,2 km/h (1 Bft) N-NE 22 0 min 0 W/m 10,1 C 13,3 C 4,3 km/h (1 Bft)
12/09/2009 03:50 13,2 C 81 % 1022,5 hPa 0,0 mm 2,9 km/h (1 Bft) N-NE 22 0 min 0 W/m 10,0 C 13,2 C 3,6 km/h (1 Bft)
12/09/2009 04:00 13,2 C 82 % 1022,3 hPa 0,0 mm 3,2 km/h (1 Bft) N-NO 337 0 min 0 W/m 10,2 C 13,2 C 3,6 km/h (1 Bft)
12/09/2009 04:10 13,1 C 82 % 1022,4 hPa 0,0 mm 2,2 km/h (1 Bft) N-NO 337 0 min 0 W/m 10,1 C 13,1 C 6,8 km/h (2 Bft)
12/09/2009 04:20 12,9 C 82 % 1022,3 hPa 0,0 mm 0,0 km/h (0 Bft) N-NE 22 0 min 0 W/m 9,9 C 12,9 C 4,0 km/h (1 Bft)
12/09/2009 04:30 12,8 C 82 % 1022,4 hPa 0,0 mm 1,8 km/h (1 Bft) N 360 0 min 0 W/m 9,8 C 12,8 C 7,2 km/h (2 Bft)
12/09/2009 04:40 12,5 C 83 % 1022,3 hPa 0,0 mm 2,9 km/h (1 Bft) N-NE 22 0 min 0 W/m 9,7 C 12,5 C 4,3 km/h (1 Bft)
12/09/2009 04:50 12,3 C 83 % 1022,2 hPa 0,0 mm 2,2 km/h (1 Bft) N-NE 22 0 min 0 W/m 9,5 C 12,3 C 2,2 km/h (1 Bft)
12/09/2009 05:00 12,2 C 83 % 1022,1 hPa 0,0 mm 1,1 km/h (1 Bft) N-NE 22 0 min 0 W/m 9,4 C 12,2 C 4,0 km/h (1 Bft)
12/09/2009 05:10 11,9 C 83 % 1022,2 hPa 0,0 mm 0,0 km/h (0 Bft) O-NO 292 0 min 0 W/m 9,1 C 11,9 C 0,0 km/h (0 Bft)
12/09/2009 05:20 11,8 C 83 % 1022,1 hPa 0,0 mm 0,0 km/h (0 Bft) NE 45 0 min 0 W/m 9,0 C 11,8 C 0,0 km/h (0 Bft)
12/09/2009 05:30 11,5 C 83 % 1022,0 hPa 0,0 mm 0,0 km/h (0 Bft) N 360 0 min 0 W/m 8,7 C 11,5 C 0,0 km/h (0 Bft)
12/09/2009 05:40 11,4 C 83 % 1022,0 hPa 0,0 mm 0,4 km/h (0 Bft) N-NE 22 0 min 0 W/m 8,6 C 11,4 C 3,6 km/h (1 Bft)
12/09/2009 05:50 11,2 C 84 % 1021,8 hPa 0,0 mm 0,4 km/h (0 Bft) N-NE 22 0 min 0 W/m 8,6 C 11,2 C 2,9 km/h (1 Bft)
12/09/2009 06:00 11,1 C 84 % 1021,8 hPa 0,0 mm 1,1 km/h (1 Bft) N-NE 22 0 min 0 W/m 8,5 C 11,1 C 4,0 km/h (1 Bft)
12/09/2009 06:10 10,9 C 84 % 1021,9 hPa 0,0 mm 0,7 km/h (0 Bft) N-NE 22 0 min 0 W/m 8,3 C 10,9 C 3,2 km/h (1 Bft)
12/09/2009 06:20 10,9 C 84 % 1021,8 hPa 0,0 mm 0,0 km/h (0 Bft) N 360 0 min 0 W/m 8,3 C 10,9 C 0,0 km/h (0 Bft)
12/09/2009 06:30 10,8 C 84 % 1021,8 hPa 0,0 mm 0,0 km/h (0 Bft) N-NE 22 0 min 0 W/m 8,2 C 10,8 C 0,0 km/h (0 Bft)
12/09/2009 06:40 10,6 C 84 % 1021,8 hPa 0,0 mm 0,0 km/h (0 Bft) N-NO 337 0 min 0 W/m 8,0 C 10,6 C 0,0 km/h (0 Bft)
12/09/2009 06:50 10,4 C 84 % 1021,9 hPa 0,0 mm 0,0 km/h (0 Bft) N 360 0 min 0 W/m 7,8 C 10,4 C 0,0 km/h (0 Bft)
12/09/2009 07:00 10,3 C 85 % 1021,8 hPa 0,0 mm 0,0 km/h (0 Bft) E-NE 67 0 min 0 W/m 7,9 C 10,3 C 0,0 km/h (0 Bft)
12/09/2009 07:10 10,1 C 84 % 1021,8 hPa 0,0 mm 0,0 km/h (0 Bft) N-NE 22 0 min 0 W/m 7,5 C 10,1 C 1,4 km/h (1 Bft)
12/09/2009 07:20 10,0 C 85 % 1021,9 hPa 0,0 mm 0,7 km/h (0 Bft) NE 45 0 min 0 W/m 7,6 C 10,0 C 4,3 km/h (1 Bft)
12/09/2009 07:30 10,0 C 85 % 1021,8 hPa 0,0 mm 1,8 km/h (1 Bft) NE 45 0 min 0 W/m 7,6 C 10,0 C 4,3 km/h (1 Bft)
12/09/2009 07:40 9,9 C 85 % 1021,9 hPa 0,0 mm 1,4 km/h (1 Bft) N-NE 22 0 min 0 W/m 7,5 C 9,9 C 3,2 km/h (1 Bft)
12/09/2009 07:50 10,1 C 86 % 1022,0 hPa 0,0 mm 1,4 km/h (1 Bft) N-NO 337 7 min 0 W/m 7,9 C 10,1 C 1,4 km/h (1 Bft)
12/09/2009 08:00 10,1 C 86 % 1022,0 hPa 0,0 mm 0,0 km/h (0 Bft) NO 315 7 min 0 W/m 7,9 C 10,1 C 0,0 km/h (0 Bft)
12/09/2009 08:10 10,2 C 86 % 1022,0 hPa 0,0 mm 2,5 km/h (1 Bft) NE 45 7 min 0 W/m 8,0 C 10,2 C 7,9 km/h (2 Bft)
12/09/2009 08:20 10,4 C 86 % 1021,9 hPa 0,0 mm 2,5 km/h (1 Bft) S-SE 157 7 min 0 W/m 8,2 C 10,4 C 8,3 km/h (2 Bft)
12/09/2009 08:30 10,7 C 86 % 1021,8 hPa 0,0 mm 0,4 km/h (0 Bft) N 360 7 min 0 W/m 8,5 C 10,7 C 4,0 km/h (1 Bft)
12/09/2009 08:40 11,2 C 86 % 1021,8 hPa 0,0 mm 2,9 km/h (1 Bft) O 270 7 min 0 W/m 8,9 C 11,2 C 7,2 km/h (2 Bft)
12/09/2009 08:50 11,6 C 84 % 1021,7 hPa 0,0 mm 1,8 km/h (1 Bft) N-NE 22 7 min 0 W/m 9,0 C 11,6 C 3,2 km/h (1 Bft)
12/09/2009 09:00 12,0 C 83 % 1021,7 hPa 0,0 mm 3,6 km/h (1 Bft) N-NO 337 7 min 0 W/m 9,2 C 12,0 C 3,6 km/h (1 Bft)
12/09/2009 09:10 12,6 C 82 % 1021,7 hPa 0,0 mm 9,7 km/h (2 Bft) N 360 7 min 0 W/m 9,6 C 12,6 C 15,1 km/h (3 Bft)
12/09/2009 09:20 13,3 C 81 % 1021,8 hPa 0,0 mm 5,0 km/h (1 Bft) E 90 7 min 0 W/m 10,1 C 13,3 C 6,5 km/h (2 Bft)
12/09/2009 09:30 13,8 C 79 % 1021,9 hPa 0,0 mm 9,0 km/h (2 Bft) NE 45 7 min 0 W/m 10,2 C 13,8 C 13,3 km/h (3 Bft)
12/09/2009 09:40 14,3 C 76 % 1021,9 hPa 0,0 mm 9,7 km/h (2 Bft) N 360 7 min 0 W/m 10,1 C 14,3 C 15,8 km/h (3 Bft)
12/09/2009 09:50 14,6 C 76 % 1021,9 hPa 0,0 mm 1,4 km/h (1 Bft) N 360 7 min 0 W/m 10,4 C 14,6 C 3,6 km/h (1 Bft)
12/09/2009 10:00 14,9 C 74 % 1022,0 hPa 0,0 mm 1,8 km/h (1 Bft) NE 45 7 min 0 W/m 10,3 C 14,9 C 6,5 km/h (2 Bft)
12/09/2009 10:10 14,8 C 74 % 1021,9 hPa 0,0 mm 4,7 km/h (1 Bft) NE 45 7 min 0 W/m 10,2 C 14,8 C 9,0 km/h (2 Bft)
12/09/2009 10:20 14,5 C 75 % 1021,8 hPa 0,0 mm 2,9 km/h (1 Bft) N-NE 22 7 min 0 W/m 10,1 C 14,5 C 6,8 km/h (2 Bft)
12/09/2009 10:30 14,4 C 76 % 1021,9 hPa 0,0 mm 2,5 km/h (1 Bft) NE 45 7 min 0 W/m 10,2 C 14,4 C 2,9 km/h (1 Bft)
12/09/2009 10:40 14,6 C 76 % 1021,8 hPa 0,0 mm 5,4 km/h (2 Bft) N-NE 22 7 min 0 W/m 10,4 C 14,6 C 6,5 km/h (2 Bft)
12/09/2009 10:50 14,9 C 75 % 1021,9 hPa 0,0 mm 8,3 km/h (2 Bft) N-NE 22 7 min 0 W/m 10,5 C 14,9 C 11,9 km/h (2 Bft)
12/09/2009 11:00 15,4 C 74 % 1022,0 hPa 0,0 mm 3,6 km/h (1 Bft) N-NE 22 7 min 0 W/m 10,8 C 15,4 C 3,6 km/h (1 Bft)
12/09/2009 11:10 15,9 C 73 % 1022,1 hPa 0,0 mm 2,9 km/h (1 Bft) NE 45 7 min 0 W/m 11,1 C 15,9 C 6,1 km/h (2 Bft)
12/09/2009 11:20 16,4 C 71 % 1021,9 hPa 0,0 mm 9,4 km/h (2 Bft) NE 45 7 min 0 W/m 11,1 C 16,4 C 10,4 km/h (2 Bft)
12/09/2009 11:30 16,6 C 70 % 1021,8 hPa 0,0 mm 4,3 km/h (1 Bft) NE 45 7 min 0 W/m 11,1 C 16,6 C 11,5 km/h (2 Bft)
12/09/2009 11:40 16,8 C 70 % 1021,8 hPa 0,0 mm 5,4 km/h (2 Bft) N 360 7 min 0 W/m 11,3 C 16,8 C 9,7 km/h (2 Bft)
12/09/2009 11:50 16,9 C 70 % 1021,8 hPa 0,0 mm 5,0 km/h (1 Bft) N 360 7 min 0 W/m 11,4 C 16,9 C 6,1 km/h (2 Bft)
12/09/2009 12:00 16,9 C 70 % 1021,7 hPa 0,0 mm 5,8 km/h (2 Bft) N 360 7 min 0 W/m 11,4 C 16,9 C 9,4 km/h (2 Bft)
12/09/2009 12:10 17,1 C 69 % 1021,7 hPa 0,0 mm 5,0 km/h (1 Bft) N-NE 22 7 min 0 W/m 11,4 C 17,1 C 11,9 km/h (2 Bft)
12/09/2009 12:20 17,1 C 69 % 1021,5 hPa 0,0 mm 1,4 km/h (1 Bft) N 360 7 min 0 W/m 11,4 C 17,1 C 4,3 km/h (1 Bft)
12/09/2009 12:30 17,4 C 68 % 1021,4 hPa 0,0 mm 8,6 km/h (2 Bft) NE 45 7 min 0 W/m 11,4 C 17,4 C 12,2 km/h (2 Bft)
12/09/2009 12:40 17,6 C 68 % 1021,3 hPa 0,0 mm 11,2 km/h (2 Bft) N-NE 22 7 min 0 W/m 11,6 C 17,6 C 16,2 km/h (3 Bft)
12/09/2009 12:50 17,8 C 67 % 1021,5 hPa 0,0 mm 10,1 km/h (2 Bft) N 360 7 min 0 W/m 11,6 C 17,8 C 10,1 km/h (2 Bft)
12/09/2009 13:00 18,1 C 67 % 1021,5 hPa 0,0 mm 3,2 km/h (1 Bft) E 90 7 min 0 W/m 11,9 C 18,1 C 5,8 km/h (2 Bft)
12/09/2009 13:10 18,9 C 65 % 1021,6 hPa 0,0 mm 5,8 km/h (2 Bft) N-NE 22 7 min 0 W/m 12,2 C 18,9 C 11,9 km/h (2 Bft)
12/09/2009 13:20 19,6 C 63 % 1021,5 hPa 0,0 mm 6,8 km/h (2 Bft) N-NE 22 7 min 0 W/m 12,4 C 19,6 C 14,0 km/h (3 Bft)
12/09/2009 13:30 20,2 C 62 % 1021,6 hPa 0,0 mm 2,9 km/h (1 Bft) NE 45 7 min 0 W/m 12,7 C 20,2 C 3,6 km/h (1 Bft)
12/09/2009 13:40 20,6 C 58 % 1021,4 hPa 0,0 mm 7,9 km/h (2 Bft) N-NE 22 7 min 0 W/m 12,0 C 20,6 C 10,1 km/h (2 Bft)
12/09/2009 13:50 21,1 C 59 % 1021,5 hPa 0,0 mm 5,0 km/h (1 Bft) NE 45 7 min 0 W/m 12,8 C 21,1 C 9,4 km/h (2 Bft)
12/09/2009 14:00 21,4 C 57 % 1021,4 hPa 0,0 mm 6,8 km/h (2 Bft) N-NE 22 7 min 0 W/m 12,5 C 21,4 C 12,6 km/h (3 Bft)
12/09/2009 14:10 21,6 C 57 % 1021,3 hPa 0,0 mm 6,5 km/h (2 Bft) E-NE 67 7 min 0 W/m 12,7 C 21,6 C 6,5 km/h (2 Bft)
12/09/2009 14:20 21,6 C 56 % 1021,3 hPa 0,0 mm 6,5 km/h (2 Bft) N 360 7 min 0 W/m 12,4 C 21,6 C 11,2 km/h (2 Bft)
12/09/2009 14:30 21,6 C 56 % 1021,2 hPa 0,0 mm 7,6 km/h (2 Bft) E-SE 112 7 min 0 W/m 12,4 C 21,6 C 11,2 km/h (2 Bft)
12/09/2009 14:40 21,8 C 57 % 1021,2 hPa 0,0 mm 6,8 km/h (2 Bft) SE 135 7 min 0 W/m 12,9 C 21,8 C 13,0 km/h (3 Bft)
12/09/2009 14:50 21,9 C 55 % 1021,0 hPa 0,0 mm 7,2 km/h (2 Bft) N-NE 22 7 min 0 W/m 12,4 C 21,9 C 12,6 km/h (3 Bft)
12/09/2009 15:00 21,9 C 55 % 1020,9 hPa 0,0 mm 9,4 km/h (2 Bft) N-NE 22 7 min 0 W/m 12,4 C 21,9 C 20,2 km/h (4 Bft)
12/09/2009 15:10 21,9 C 55 % 1020,8 hPa 0,0 mm 6,8 km/h (2 Bft) N-NE 22 7 min 0 W/m 12,4 C 21,9 C 8,6 km/h (2 Bft)
12/09/2009 15:20 22,0 C 55 % 1020,9 hPa 0,0 mm 2,9 km/h (1 Bft) N 360 7 min 0 W/m 12,5 C 22,0 C 6,5 km/h (2 Bft)
12/09/2009 15:30 22,2 C 54 % 1020,8 hPa 0,0 mm 7,9 km/h (2 Bft) NE 45 7 min 0 W/m 12,4 C 22,2 C 9,0 km/h (2 Bft)
12/09/2009 15:40 22,2 C 53 % 1020,8 hPa 0,0 mm 11,2 km/h (2 Bft) N 360 7 min 0 W/m 12,2 C 22,2 C 17,3 km/h (3 Bft)
12/09/2009 15:50 22,2 C 53 % 1020,7 hPa 0,0 mm 15,5 km/h (3 Bft) E 90 7 min 0 W/m 12,2 C 22,2 C 22,7 km/h (4 Bft)
12/09/2009 16:00 22,1 C 52 % 1020,5 hPa 0,0 mm 8,6 km/h (2 Bft) N-NE 22 7 min 0 W/m 11,8 C 22,1 C 12,2 km/h (2 Bft)
12/09/2009 16:10 22,1 C 53 % 1020,5 hPa 0,0 mm 10,1 km/h (2 Bft) N 360 7 min 0 W/m 12,1 C 22,1 C 16,6 km/h (3 Bft)
12/09/2009 16:20 22,1 C 53 % 1020,5 hPa 0,0 mm 7,2 km/h (2 Bft) N-NO 337 7 min 0 W/m 12,1 C 22,1 C 13,3 km/h (3 Bft)
12/09/2009 16:30 22,2 C 52 % 1020,5 hPa 0,0 mm 7,9 km/h (2 Bft) N 360 7 min 0 W/m 11,9 C 22,2 C 18,4 km/h (3 Bft)
12/09/2009 16:40 22,2 C 51 % 1020,5 hPa 0,0 mm 16,2 km/h (3 Bft) N 360 7 min 0 W/m 11,6 C 22,2 C 22,0 km/h (4 Bft)
12/09/2009 16:50 22,2 C 51 % 1020,4 hPa 0,0 mm 9,7 km/h (2 Bft) NE 45 7 min 0 W/m 11,6 C 22,2 C 19,8 km/h (3 Bft)
12/09/2009 17:00 22,1 C 52 % 1020,3 hPa 0,0 mm 2,2 km/h (1 Bft) NE 45 7 min 0 W/m 11,8 C 22,1 C 4,3 km/h (1 Bft)
12/09/2009 17:10 22,3 C 51 % 1020,3 hPa 0,0 mm 5,4 km/h (2 Bft) NE 45 7 min 0 W/m 11,7 C 22,3 C 7,2 km/h (2 Bft)
12/09/2009 17:20 22,2 C 52 % 1020,2 hPa 0,0 mm 10,1 km/h (2 Bft) E-NE 67 7 min 0 W/m 11,9 C 22,2 C 14,8 km/h (3 Bft)
12/09/2009 17:30 22,3 C 51 % 1019,9 hPa 0,0 mm 4,3 km/h (1 Bft) E-SE 112 7 min 0 W/m 11,7 C 22,3 C 4,3 km/h (1 Bft)
12/09/2009 17:40 22,3 C 51 % 1019,8 hPa 0,0 mm 11,5 km/h (2 Bft) N-NE 22 7 min 0 W/m 11,7 C 22,3 C 15,1 km/h (3 Bft)
12/09/2009 17:50 22,2 C 51 % 1019,7 hPa 0,0 mm 9,0 km/h (2 Bft) N-NE 22 7 min 0 W/m 11,6 C 22,2 C 14,0 km/h (3 Bft)
12/09/2009 18:00 22,2 C 51 % 1019,7 hPa 0,0 mm 6,1 km/h (2 Bft) E 90 7 min 0 W/m 11,6 C 22,2 C 10,4 km/h (2 Bft)
12/09/2009 18:10 22,2 C 51 % 1019,7 hPa 0,0 mm 5,4 km/h (2 Bft) N-NE 22 7 min 0 W/m 11,6 C 22,2 C 13,7 km/h (3 Bft)
12/09/2009 18:20 22,4 C 51 % 1019,6 hPa 0,0 mm 4,7 km/h (1 Bft) E 90 7 min 0 W/m 11,8 C 22,4 C 7,6 km/h (2 Bft)
12/09/2009 18:30 22,3 C 50 % 1019,6 hPa 0,0 mm 7,2 km/h (2 Bft) E-NE 67 7 min 0 W/m 11,4 C 22,3 C 9,0 km/h (2 Bft)
12/09/2009 18:40 22,2 C 50 % 1019,7 hPa 0,0 mm 5,0 km/h (1 Bft) N-NE 22 7 min 0 W/m 11,3 C 22,2 C 5,8 km/h (2 Bft)
12/09/2009 18:50 22,0 C 51 % 1019,7 hPa 0,0 mm 5,0 km/h (1 Bft) N-NE 22 7 min 0 W/m 11,4 C 22,0 C 9,4 km/h (2 Bft)
12/09/2009 19:00 21,8 C 51 % 1019,7 hPa 0,0 mm 3,6 km/h (1 Bft) N-NE 22 7 min 0 W/m 11,2 C 21,8 C 6,8 km/h (2 Bft)
12/09/2009 19:10 21,5 C 51 % 1019,7 hPa 0,0 mm 5,4 km/h (2 Bft) NE 45 7 min 0 W/m 10,9 C 21,5 C 9,0 km/h (2 Bft)
12/09/2009 19:20 21,3 C 51 % 1019,7 hPa 0,0 mm 5,4 km/h (2 Bft) N 360 7 min 0 W/m 10,7 C 21,3 C 5,4 km/h (2 Bft)
12/09/2009 19:30 21,1 C 51 % 1019,7 hPa 0,0 mm 1,1 km/h (1 Bft) N 360 7 min 0 W/m 10,6 C 21,1 C 3,6 km/h (1 Bft)
12/09/2009 19:40 20,8 C 51 % 1019,7 hPa 0,0 mm 5,0 km/h (1 Bft) N-NE 22 7 min 0 W/m 10,3 C 20,8 C 9,0 km/h (2 Bft)
12/09/2009 19:50 20,6 C 52 % 1019,9 hPa 0,0 mm 6,5 km/h (2 Bft) N 360 7 min 0 W/m 10,4 C 20,6 C 9,7 km/h (2 Bft)
12/09/2009 20:00 20,3 C 52 % 1019,9 hPa 0,0 mm 6,1 km/h (2 Bft) E-NE 67 7 min 0 W/m 10,1 C 20,3 C 10,1 km/h (2 Bft)
12/09/2009 20:10 20,0 C 53 % 1020,0 hPa 0,0 mm 4,3 km/h (1 Bft) NE 45 0 min 0 W/m 10,1 C 20,0 C 7,9 km/h (2 Bft)
12/09/2009 20:20 19,6 C 54 % 1020,1 hPa 0,0 mm 4,7 km/h (1 Bft) N-NE 22 0 min 0 W/m 10,0 C 19,6 C 8,6 km/h (2 Bft)
12/09/2009 20:30 19,4 C 55 % 1020,2 hPa 0,0 mm 2,9 km/h (1 Bft) NE 45 0 min 0 W/m 10,1 C 19,4 C 3,2 km/h (1 Bft)
12/09/2009 20:40 19,1 C 56 % 1020,4 hPa 0,0 mm 5,0 km/h (1 Bft) NE 45 0 min 0 W/m 10,1 C 19,1 C 5,0 km/h (1 Bft)
12/09/2009 20:50 18,8 C 57 % 1020,5 hPa 0,0 mm 6,1 km/h (2 Bft) NE 45 0 min 0 W/m 10,1 C 18,8 C 7,6 km/h (2 Bft)
12/09/2009 21:00 18,8 C 57 % 1020,5 hPa 0,0 mm 3,2 km/h (1 Bft) N 360 0 min 0 W/m 10,1 C 18,8 C 6,5 km/h (2 Bft)
12/09/2009 21:10 18,8 C 57 % 1020,7 hPa 0,0 mm 4,0 km/h (1 Bft) E-SE 112 0 min 0 W/m 10,1 C 18,8 C 8,6 km/h (2 Bft)
12/09/2009 21:20 18,8 C 57 % 1020,8 hPa 0,0 mm 3,2 km/h (1 Bft) NE 45 0 min 0 W/m 10,1 C 18,8 C 3,6 km/h (1 Bft)
12/09/2009 21:30 18,8 C 58 % 1020,9 hPa 0,0 mm 4,0 km/h (1 Bft) N 360 0 min 0 W/m 10,4 C 18,8 C 12,2 km/h (2 Bft)
12/09/2009 21:40 18,6 C 58 % 1021,0 hPa 0,0 mm 4,0 km/h (1 Bft) N-NE 22 0 min 0 W/m 10,2 C 18,6 C 10,4 km/h (2 Bft)
12/09/2009 21:50 18,3 C 58 % 1020,9 hPa 0,0 mm 6,8 km/h (2 Bft) NE 45 0 min 0 W/m 9,9 C 18,3 C 9,0 km/h (2 Bft)
12/09/2009 22:00 18,1 C 59 % 1020,9 hPa 0,0 mm 6,5 km/h (2 Bft) N-NE 22 0 min 0 W/m 10,0 C 18,1 C 10,8 km/h (2 Bft)
12/09/2009 22:10 17,8 C 59 % 1021,0 hPa 0,0 mm 6,8 km/h (2 Bft) N-NE 22 0 min 0 W/m 9,7 C 17,8 C 7,2 km/h (2 Bft)
12/09/2009 22:20 17,6 C 60 % 1020,9 hPa 0,0 mm 4,3 km/h (1 Bft) N-NE 22 0 min 0 W/m 9,7 C 17,6 C 6,8 km/h (2 Bft)
12/09/2009 22:30 17,4 C 61 % 1020,9 hPa 0,0 mm 6,8 km/h (2 Bft) NE 45 0 min 0 W/m 9,8 C 17,4 C 13,7 km/h (3 Bft)
12/09/2009 22:40 17,1 C 61 % 1020,9 hPa 0,0 mm 3,6 km/h (1 Bft) N-NE 22 0 min 0 W/m 9,5 C 17,1 C 7,2 km/h (2 Bft)
12/09/2009 22:50 16,8 C 62 % 1020,9 hPa 0,0 mm 4,0 km/h (1 Bft) N-NE 22 0 min 0 W/m 9,5 C 16,8 C 7,2 km/h (2 Bft)
12/09/2009 23:00 16,6 C 63 % 1020,9 hPa 0,0 mm 2,5 km/h (1 Bft) NE 45 0 min 0 W/m 9,5 C 16,6 C 4,3 km/h (1 Bft)
12/09/2009 23:10 16,3 C 64 % 1021,0 hPa 0,0 mm 3,6 km/h (1 Bft) NE 45 0 min 0 W/m 9,5 C 16,3 C 9,0 km/h (2 Bft)
12/09/2009 23:20 16,2 C 64 % 1021,1 hPa 0,0 mm 7,9 km/h (2 Bft) N 360 0 min 0 W/m 9,4 C 16,2 C 16,6 km/h (3 Bft)
12/09/2009 23:30 16,0 C 64 % 1021,2 hPa 0,0 mm 6,1 km/h (2 Bft) NE 45 0 min 0 W/m 9,2 C 16,0 C 6,8 km/h (2 Bft)
12/09/2009 23:40 15,9 C 65 % 1021,0 hPa 0,0 mm 3,2 km/h (1 Bft) N 360 0 min 0 W/m 9,3 C 15,9 C 7,6 km/h (2 Bft)
12/09/2009 23:50 15,8 C 65 % 1021,0 hPa 0,0 mm 2,5 km/h (1 Bft) NE 45 0 min 0 W/m 9,2 C 15,8 C 6,5 km/h (2 Bft)
_ Min-Heure 07:40 18:40 18:30 - 08:00 - - - - 07:40 07:40 08:00
Minimum _ 9,9 C 50 % 1019,6 hPa - 0,0 km/h (0 Bft) - - - - 7,5 C 9,9 C 0,0 km/h (0 Bft)
_ Max-Heure 18:20 08:40 00:10 23:50 16:40 - - 20:00 23:50 14:40 18:20 15:50
Maximum _ 22,4 C 86 % 1024,1 hPa 0,0 mm 16,2 km/h
N (3 Bft)
- - 7 min 0 W/m 12,9 C 22,4 C 22,7 km/h
E (4 Bft)
Moyenne _ 16,7 C 68 % 1021,5 hPa #0,0 mm 4,3 km/h (1 Bft) N-NE - 4 min 0 W/m 10,4 C 16,7 C 7,5 km/h (2 Bft)
Saint Bonnet de Bellac- Haute Vienne - France